sat.trackr.live / text

‹ back to catalog

STARLINK-5976

NORAD 56343 · 2023-058AC

PAYLOAD ACTIVE UNKNOWN

§ Identity

Operator
Country
US
Launch date
2023-04-27
Launch site
AFWTR
Launch vehicle
Mass (kg)
RCS (m²)

Purposes: comms

External: N2YO · Heavens-Above · Gunter

§ Orbital elements

Epoch: 2026-09-20T11:44:16.448928Z

Period
93.91 min
Inclination
97.2841°
Eccentricity
0.0001646
Mean motion
15.33438310 rev/d
Perigee alt
464.4 km
Apogee alt
466.7 km
Semi-major
6,843.7 km
B*
2.7285e-5
RAAN
260.2465°
Arg perigee
91.7576°
Mean anomaly
268.3856°
Rev number
18,763

§ Raw data

STARLINK-59761 56343U 23058AC  26263.48907927  .00000806  00000+0  27285-4 0  99952 56343  97.2841 260.2465 0001646  91.7576 268.3856 15.33438310187635

JSON: /api/v1/satellites/56343 · /tle

For live sub-satellite position, see the globe view (requires WebGL).

§ Visibility from observer

Set your observer location to see the next 7 days of passes ≥ 10°. The values pass through the URL so the page stays shareable.

No JS? Fill the form by hand. The geolocation button needs JavaScript.